Location: Unspecified
(49.8670°N, 0.0000°E)
Time: 20:39:15
(UTC+00:00)

ISS - Pass Details

Date: 28 May 2019
Orbit: 408 x 418 km, 51.6° (Epoch: 19 June)

Event Time Altitude Azimuth Distance (km) Brightness Sun altitude
Rises 20:28:28 0° 279° (W) 2,353 1.1 -5.0°
Reaches altitude 10° 20:30:34 10° 283° (WNW) 1,492 0.1 -5.2°
Maximum altitude 20:33:54 64° 6° (N) 465 -3.3 -5.6°
Drops below altitude 10° 20:37:14 10° 89° (E) 1,498 -1.4 -6.0°
Enters shadow 20:38:59 - 92° (E) 2,210 -0.5 -6.2°
